Huvudsida
METAR-TAF:

METAR-TAF

Flygplatser :

Kudat, Malaysia

latitud: 06-55N, longitud: 116-50E, höjd: 3 m

Aktuellt väderrapport

Denna rapport gjordes för 1 timme och 14 minuter sedan, klockan 07:00 UTC
Vind 5 kt varierande vindriktning
Temperatur 30°C
Fuktighet 79%
Tryck 1008 hPa
Sikt 10 km eller mer
Spridda moln på en höjd av 1400 ft
Spridda moln på en höjd av 14000 ft
Brutna moln på en höjd av 27000 ft

METAR: WBKT 150700Z VRB05KT 9999 SCT014 SCT140 BKN270 30/26 Q1008

Tid: 16:14 (08:14 UTC)


TAF: saknas

Aktuella väderrapporter och prognoser från 4000 flygplatser (METAR- och TAF-rapporter).

De tillgängliga stationerna syns som gula och röda prickar på kartan.

För musen över prickarna för att se namnen på stationerna.

Klicka sedan för att få väderrapporter och prognoser.

För att ändra kartan: Klicka på de gröna knapparna med ett svart kors på för att zooma in; den gröna knappen med ett streck på för att zooma ut; eller på de gröna pilarna för angränsande kartor.


METAR-TAF: